Weather in Krasnoturansk

Russia / Krasnoyarsk Krai     54°19′01″N   91°34′03″E
temp.,
°C
wind,
m/s
gust,
m/s
humid.,
%
clouds,
%
prec.,
mm/h
press.,
hPa
HPBL,
m
15 may, sat
sat1501:00+8wnw4661100 0.0 102190
04:00+8wsw2260100 0.0 102115
07:00+9ssw2358100 0.0 1022108
10:00+12sw4551100 0.0 1021449
13:00+15wnw3547100 0.0 1019936
16:00+12ssw2366100 0.5 1019127
19:00+13ssw4565100 1.1 1019193
22:00+11s577584 0.0 101890
16 may, sun
sun1601:00+10ssw3481100 0.3 101856
04:00+11s4578100 0.1 101660
07:00+10se3388100 1.8 101636
10:00+11sse3481100 0.3 101688
13:00+13s2272100 0.5 1014159
16:00+14sse5667100 0.1 1011323
19:00+16wsw51163100 1.6 1007276
22:00+11nw5994100 2.8 1010286
17 may, mon
mon1701:00+10nnw3593100 4.1 1010225
04:00+9nw4593100 1.6 1011223
07:00+8nnw458797 1.9 1013208
10:00+10nnw567772 0.0 1015468
13:00+11nw346837 0.0 1015616
16:00+12w346391 0.0 1015604
19:00+11w3573100 0.0 1015145
22:00+10w2378100 0.0 101574
18 may, tue
tue1801:00+10sw118185 0.0 101422
04:00+9ssw2285100 0.0 101312
07:00+9sse3385100 0.0 101175
10:00+9s4692100 1.1 1009165
13:00+10s4996100 7.1 1005281
16:00+13wnw4883100 1.8 1003313
19:00+10se1199100 10.6 100226
22:00+10se1198100 0.1 100311
19 may, wed
wed1901:00+10nw71195100 1.1 1003299
04:00+8nnw2495100 0.4 1004225
07:00+8nw3495100 0.9 1005156
10:00+8nnw2496100 2.1 1006160
13:00+8wnw3488100 2.9 1005298
16:00+7nw5796100 3.9 1004218
19:00+7nw3593100 8.6 1004180
22:00+7nw4690100 0.3 1004127